This is the latest recevied weather packets stored in our database for station/object K4MGY-13. If no packets are shown the sender has not sent any weather packets the latest 1 day(s).
| Time | Temp. | Humidity | Pressure | Rain* | Wind** | Luminosity | Snow |
|---|---|---|---|---|---|---|---|
| 1778008539 | 23.33° C | 49% | 1009.1 hPa | 0 mm | 0.89 m/s, 200° | - | - |
| 1778008238 | 23.33° C | 49% | 1009.1 hPa | 0 mm | 0.45 m/s, 194° | - | - |
| 1778007908 | 22.78° C | 50% | 1009.1 hPa | 0 mm | 1.34 m/s, 192° | - | - |
| 1778007578 | 22.22° C | 53% | 1009.5 hPa | 0 mm | 0.89 m/s, 163° | - | - |
| 1778007249 | 21.67° C | 53% | 1009.8 hPa | 0 mm | 0.45 m/s, 168° | - | - |
| 1778006918 | 21.67° C | 54% | 1009.5 hPa | 0 mm | 0.89 m/s, 154° | - | - |
| 1778006588 | 21.11° C | 55% | 1009.8 hPa | 0 mm | 0.89 m/s, 176° | - | - |
| 1778006290 | 21.11° C | 57% | 1009.5 hPa | 0 mm | 0.89 m/s, 161° | - | - |
| 1778005958 | 21.11° C | 57% | 1009.8 hPa | 0 mm | 0.45 m/s, 161° | - | - |
| 1778005661 | 21.11° C | 57% | 1009.5 hPa | 0 mm | 0.89 m/s, 195° | - | - |
| 1778005358 | 20.56° C | 58% | 1009.5 hPa | 0 mm | 0.45 m/s, 168° | - | - |
| 1778005058 | 20.56° C | 58% | 1009.8 hPa | 0 mm | 0.89 m/s, 160° | - | - |
| 1778004758 | 20.56° C | 57% | 1009.9 hPa | 0 mm | 1.34 m/s, 182° | - | - |
| 1778004459 | 20.56° C | 58% | 1010.2 hPa | 0 mm | 0.89 m/s, 164° | - | - |
| 1778004158 | 21.11° C | 56% | 1010.5 hPa | 0 mm | 0.89 m/s, 169° | - | - |
| 1778003828 | 21.11° C | 57% | 1010.5 hPa | 0 mm | 0.89 m/s, 189° | - | - |
| 1778003500 | 21.11° C | 56% | 1010.5 hPa | 0 mm | 0.89 m/s, 183° | - | - |
| 1778003198 | 20.56° C | 57% | 1010.8 hPa | 0 mm | 0.89 m/s, 175° | - | - |
| 1778002570 | 20.56° C | 58% | 1010.8 hPa | 0 mm | 0.89 m/s, 202° | - | - |
| 1778002239 | 20.56° C | 59% | 1011.5 hPa | 0 mm | 0.89 m/s, 195° | - | - |
| 1778001638 | 20.56° C | 59% | 1011.5 hPa | 0 mm | 0.89 m/s, 170° | - | - |
| 1778001308 | 20.56° C | 59% | 1011.5 hPa | 0 mm | 1.34 m/s, 201° | - | - |
| 1778000979 | 20.56° C | 58% | 1011.9 hPa | 0 mm | 0.89 m/s, 199° | - | - |
| 1778000648 | 20.56° C | 58% | 1011.9 hPa | 0 mm | 0.89 m/s, 184° | - | - |
| 1778000348 | 20.56° C | 59% | 1011.9 hPa | 0 mm | 0.89 m/s, 214° | - | - |
* Rain latest hour (hover to see other rain measurements)
** Current wind speed in m/s (hover to see current wind gust speed)